STARLINK-30556, 58031

Orbit data source: Space-Track

STARLINK-30556, 58031 is a payload satellite owned by SpaceX/Seattle (US) in LEO that was launched on Mon, 09 Oct 2023 UTC via an FALCON 9 launch vehicle from the Air Force Western Test Range (AFWTR). Payload-class satellites include a variety of spacecraft equipped with specific instruments for various scientific and technological missions. These include communications satellites like Starlink; space stations such as the ISS; scientific satellites like the Hubble; Earth observation satellites from companies like Planet Labs, Umbra, and HawkEye 360; GPS; miniature CubeSats for education and research; and military/defense satellites.

Loading next visibility...
Identifier
58031, 2023-156D
Orbit
LEO
Country
Flag of USUS
Related business
Manufacturer
SpaceX/Seattle
Mission
Operational Commercial Communications
Bus & Motor
STARLINK V2M, Unknown motor
Mass
730 kg wet, ~700 kg dry
Launch date (UTC)
2023-10-09 (2 years ago)
Launch vehicle
FALCON 9
Launch site
Air Force Western Test Range (AFWTR)
Object type
Payload
Rocket body
Debris
Shape & HBR
Box + 2 Pan, 17.7 m
Radar Cross Section
33.884 m², Large (>1 m²)

Expand to show TLE details & history
Last TLE update: 1 day ago

TLE from 1 day ago
0 STARLINK-30556
1 58031U 23156D   25348.66934070 -.00000140  00000-0  73839-5 0  9992
2 58031  53.1587 123.3064 0000873  79.5156 280.5943 15.30193165123144
Epoch: 2025-12-14T16:03Z
TLE epoch observation values (Epoch: 2025-12-14T16:03:51.036Z)
Latitude
-0.00003°
Longitude
158.76479°
Altitude
476.025 km
Speed
7.629 km/s
True Right ascension
08h 13m 13s
True Declination
0° 00' 00"
Sunlit
Object was in full shadow at epoch
Visualization orbit readout
Latitude
Unknown
Longitude
Unknown
Altitude
Unknown
Speed
Unknown
Apparent Right ascension
Unknown
Apparent Declination
Unknown
Sunlit
N/A
Visualization observer readout
Local Sidereal Time
15:11:08
Azimuth
Unknown
Elevation
Unknown
Doppler factor
Unknown
Orbital elements
Apogee altitude
476.09 km
Perigee altitude
474.894 km
Semi-major axis
6,853.629 km
Eccentricity
0.00009
Inclination
53.1587°
RAAN
123.3064°
Arg. of periapsis
79.5156°
True anomaly
280.58447°
Mean anomaly
280.5943°
Eccentric anomaly
280.58938°
Mean motion
3.82527 °/min
Orbital period
94.11 mins
BSTAR
0.0000073839
Loading maneuver chart data...
Computing Atmospheric mass density...
Loading historical data...
Loading historical data...
Loading historical data...
Loading historical data...
Loading historical data...
Loading historical data...
Loading historical data...

Documentation

Showing up to 5 results
|